カタログに戻る

CZ-6A DEB

運用中PO
NORAD 60858·DEBRIS·🇨🇳 China

打ち上げ Aug 6, 2024 から Taiyuan Satellite Launch Center

Loading…

次のパス (今後24時間)

TLE

最新Source: Space-Track

元期: Sep 14, 2026, 06:52 UTC

1 60858U 24140JM  26257.28645519  .00000330  00000-0  14112-3 0  9998
2 60858  88.8592 251.8489 0032748 227.3942 132.4487 14.22299496107981

AllMySatでCZ-6A DEBをリアルタイム追跡

Download on the App Store